KNE504 OERK-OEAB

Flight info

Callsign KNE504
Flight time N/A
Altitude 38000
Route MERVI Z414 EMEKO/N0439F390 V40 ABH
Aircraft A20N/M-SDE2E3FGHIRWXY/LB1

Departure

Time 2026-05-07 21:04
Airport King Khalid International Airport (OERK)

Arrival

Time N/A
Airport Abha International Airport (OEAB)
Time Latitude Longitude Altitude Speed Heading
2026-05-07 20:34 24.94215 46.71366 2043 ft 0 kts 240°
2026-05-07 20:54 24.94221 46.71376 2045 ft 3 kts 238°
2026-05-07 20:54 24.94232 46.71395 2046 ft 3 kts 235°
2026-05-07 20:55 24.94244 46.71413 2043 ft 3 kts 230°
2026-05-07 20:55 24.94257 46.71429 2043 ft 3 kts 219°
2026-05-07 20:55 24.94273 46.71440 2046 ft 3 kts 187°
2026-05-07 20:55 24.94286 46.71440 2043 ft 1 kts 152°
2026-05-07 20:56 24.94289 46.71438 2043 ft 0 kts 152°
2026-05-07 20:58 24.94288 46.71439 2043 ft 1 kts 152°
2026-05-07 20:58 24.94279 46.71444 2045 ft 0 kts 152°
2026-05-07 20:58 24.94272 46.71448 2045 ft 3 kts 152°
2026-05-07 20:59 24.94248 46.71462 2043 ft 0 kts 152°
2026-05-07 20:59 24.94236 46.71469 2043 ft 4 kts 150°
2026-05-07 20:59 24.94209 46.71498 2043 ft 7 kts 117°
2026-05-07 20:59 24.94216 46.71558 2044 ft 9 kts 65°
2026-05-07 21:00 24.94254 46.71629 2043 ft 12 kts 59°
2026-05-07 21:00 24.94298 46.71714 2043 ft 13 kts 60°
2026-05-07 21:00 24.94335 46.71786 2044 ft 9 kts 64°
2026-05-07 21:00 24.94371 46.71854 2047 ft 11 kts 59°
2026-05-07 21:01 24.94392 46.71926 2043 ft 9 kts 110°
2026-05-07 21:01 24.94335 46.71972 2042 ft 12 kts 165°
2026-05-07 21:01 24.94306 46.72005 2044 ft 0 kts 96°
2026-05-07 21:01 24.94303 46.72020 2041 ft 10 kts 101°
2026-05-07 21:02 24.94311 46.72085 2040 ft 1 kts 45°
2026-05-07 21:02 24.94329 46.72115 2040 ft 8 kts 58°
2026-05-07 21:02 24.94366 46.72190 2040 ft 14 kts 64°
2026-05-07 21:02 24.94448 46.72241 2035 ft 12 kts 357°
2026-05-07 21:03 24.94473 46.72232 2041 ft 0 kts 331°
2026-05-07 21:03 24.94511 46.72208 2040 ft 24 kts 330°
2026-05-07 21:03 24.94865 46.71985 2038 ft 90 kts 330°
2026-05-07 21:03 24.95567 46.71540 2035 ft 140 kts 329°
2026-05-07 21:04 24.96479 46.70956 2460 ft 152 kts 332°
2026-05-07 21:04 24.97396 46.70358 3146 ft 155 kts 336°
2026-05-07 21:04 24.98382 46.69790 3553 ft 162 kts 343°
2026-05-07 21:04 24.99465 46.69342 4014 ft 172 kts 348°
2026-05-07 21:05 25.00654 46.68946 4539 ft 185 kts 348°
2026-05-07 21:05 25.01925 46.68524 5048 ft 202 kts 344°
2026-05-07 21:05 25.03296 46.67996 5588 ft 216 kts 343°
2026-05-07 21:05 25.04762 46.67446 6124 ft 230 kts 340°
2026-05-07 21:06 25.06302 46.66808 6697 ft 240 kts 339°
2026-05-07 21:06 25.07837 46.66078 7371 ft 241 kts 325°
2026-05-07 21:06 25.08966 46.64734 7831 ft 239 kts 294°
2026-05-07 21:06 25.09313 46.62989 8187 ft 232 kts 262°
2026-05-07 21:07 25.09028 46.61240 8568 ft 235 kts 252°
2026-05-07 21:07 25.08587 46.59435 9063 ft 254 kts 252°
2026-05-07 21:07 25.08128 46.57472 9499 ft 276 kts 254°
2026-05-07 21:07 25.07558 46.55456 10083 ft 286 kts 246°
2026-05-07 21:08 25.06668 46.53434 10932 ft 286 kts 237°
2026-05-07 21:08 25.05626 46.51581 11736 ft 291 kts 236°
2026-05-07 21:08 25.04560 46.49663 12558 ft 294 kts 236°
2026-05-07 21:08 25.03488 46.47720 13406 ft 298 kts 236°
2026-05-07 21:09 25.02401 46.45749 14213 ft 301 kts 236°
2026-05-07 21:09 25.01317 46.43791 15011 ft 303 kts 236°
2026-05-07 21:09 25.00213 46.41802 15800 ft 305 kts 236°
2026-05-07 21:09 24.99098 46.39800 16569 ft 307 kts 236°
2026-05-07 21:10 24.97936 46.37809 17309 ft 310 kts 235°
2026-05-07 21:10 24.96738 46.35814 18075 ft 312 kts 235°
2026-05-07 21:10 24.95531 46.33809 18739 ft 315 kts 235°
2026-05-07 21:10 24.94293 46.31747 19065 ft 331 kts 236°
2026-05-07 21:11 24.92993 46.29572 19228 ft 349 kts 236°
2026-05-07 21:11 24.91643 46.27307 19380 ft 367 kts 236°
2026-05-07 21:11 24.88792 46.22521 20436 ft 376 kts 236°
2026-05-07 21:12 24.87346 46.20109 21027 ft 379 kts 234°
2026-05-07 21:12 24.85710 46.17820 21624 ft 381 kts 228°
2026-05-07 21:12 24.83819 46.15755 22181 ft 385 kts 221°
2026-05-07 21:12 24.81695 46.13933 22748 ft 389 kts 217°
2026-05-07 21:13 24.79487 46.12176 23326 ft 392 kts 217°
2026-05-07 21:13 24.77274 46.10400 23831 ft 395 kts 217°
2026-05-07 21:13 24.75073 46.08629 24338 ft 397 kts 217°
2026-05-07 21:13 24.72835 46.06828 24856 ft 399 kts 217°
2026-05-07 21:14 24.70585 46.05018 25318 ft 402 kts 217°
2026-05-07 21:14 24.68324 46.03200 25813 ft 403 kts 217°
2026-05-07 21:14 24.66081 46.01398 26287 ft 405 kts 217°
2026-05-07 21:14 24.63798 45.99565 26750 ft 408 kts 217°
2026-05-07 21:15 24.61501 45.97722 27213 ft 410 kts 217°
2026-05-07 21:15 24.59188 45.95866 27664 ft 412 kts 217°
2026-05-07 21:15 24.56870 45.94006 28102 ft 414 kts 217°
2026-05-07 21:15 24.54534 45.92134 28549 ft 416 kts 217°
2026-05-07 21:16 24.52220 45.90280 28985 ft 417 kts 217°
2026-05-07 21:16 24.49860 45.88390 29413 ft 419 kts 217°
2026-05-07 21:16 24.47496 45.86497 29833 ft 421 kts 217°
2026-05-07 21:16 24.45123 45.84599 30235 ft 423 kts 217°
2026-05-07 21:17 24.42773 45.82719 30670 ft 422 kts 217°
2026-05-07 21:17 24.40403 45.80825 31130 ft 421 kts 217°
2026-05-07 21:17 24.38039 45.78936 31658 ft 418 kts 217°
2026-05-07 21:17 24.35702 45.77071 32280 ft 412 kts 217°
2026-05-07 21:18 24.33400 45.75233 32900 ft 407 kts 217°
2026-05-07 21:18 24.31132 45.73422 33501 ft 401 kts 217°
2026-05-07 21:18 24.28884 45.71629 34049 ft 397 kts 217°
2026-05-07 21:18 24.26662 45.69857 34460 ft 394 kts 217°
2026-05-07 21:19 24.24442 45.68088 34781 ft 394 kts 217°
2026-05-07 21:19 24.22231 45.66326 35087 ft 393 kts 217°
2026-05-07 21:19 24.20016 45.64563 35391 ft 392 kts 217°
2026-05-07 21:19 24.17812 45.62809 35708 ft 391 kts 217°
2026-05-07 21:20 24.15614 45.61059 36011 ft 391 kts 217°
2026-05-07 21:20 24.13417 45.59313 36311 ft 390 kts 217°
2026-05-07 21:20 24.11219 45.57566 36601 ft 389 kts 217°
2026-05-07 21:20 24.09028 45.55825 36878 ft 388 kts 217°
2026-05-07 21:21 24.06873 45.54115 37150 ft 388 kts 217°
2026-05-07 21:21 24.04686 45.52378 37426 ft 387 kts 217°
2026-05-07 21:21 24.02517 45.50657 37673 ft 386 kts 217°
2026-05-07 21:21 24.00348 45.48937 37923 ft 386 kts 217°
2026-05-07 21:22 23.95953 45.45453 38002 ft 394 kts 217°
2026-05-07 21:22 23.91456 45.41891 38007 ft 400 kts 217°
2026-05-07 21:23 23.89239 45.40139 38005 ft 388 kts 217°
2026-05-07 21:23 23.87079 45.38432 38003 ft 379 kts 217°
2026-05-07 21:23 23.82768 45.35023 38007 ft 385 kts 217°
2026-05-07 21:24 23.78435 45.31600 38008 ft 383 kts 217°
2026-05-07 21:24 23.74138 45.28209 38010 ft 383 kts 217°
2026-05-07 21:25 23.69805 45.24793 38011 ft 384 kts 217°
2026-05-07 21:25 23.65516 45.21413 38008 ft 384 kts 217°
2026-05-07 21:26 23.61177 45.17998 38004 ft 384 kts 217°
2026-05-07 21:26 23.56847 45.14593 37997 ft 384 kts 217°
2026-05-07 21:27 23.52529 45.11199 37998 ft 384 kts 217°
2026-05-07 21:27 23.48193 45.07794 37997 ft 384 kts 217°
2026-05-07 21:28 23.43805 45.04422 37992 ft 385 kts 216°
2026-05-07 21:28 23.39399 45.01110 37986 ft 385 kts 216°
2026-05-07 21:29 23.34985 44.97781 37981 ft 385 kts 216°
2026-05-07 21:29 23.30614 44.94478 37981 ft 386 kts 216°
2026-05-07 21:30 23.26191 44.91138 37978 ft 386 kts 216°
2026-05-07 21:30 23.21778 44.87808 37971 ft 386 kts 216°
2026-05-07 21:31 23.17361 44.84479 37966 ft 386 kts 216°
2026-05-07 21:31 23.12946 44.81154 37968 ft 387 kts 216°
2026-05-07 21:32 23.08515 44.77819 37966 ft 387 kts 216°
2026-05-07 21:32 23.04114 44.74509 37966 ft 387 kts 216°
2026-05-07 21:33 22.99675 44.71174 37961 ft 387 kts 216°
2026-05-07 21:33 22.95264 44.67862 37960 ft 387 kts 216°
2026-05-07 21:34 22.90827 44.64534 37955 ft 387 kts 216°
2026-05-07 21:34 22.86393 44.61211 37951 ft 387 kts 216°
2026-05-07 21:35 22.81963 44.57892 37950 ft 387 kts 216°
2026-05-07 21:35 22.77548 44.54588 37951 ft 387 kts 216°
2026-05-07 21:36 22.73100 44.51262 37947 ft 388 kts 216°
2026-05-07 21:36 22.68661 44.47946 37947 ft 388 kts 216°
2026-05-07 21:37 22.64212 44.44624 37949 ft 388 kts 216°
2026-05-07 21:37 22.59759 44.41303 37952 ft 388 kts 216°
2026-05-07 21:38 22.55335 44.38005 37951 ft 388 kts 216°
2026-05-07 21:38 22.50881 44.34688 37942 ft 388 kts 216°
2026-05-07 21:39 22.46427 44.31373 37945 ft 388 kts 216°
2026-05-07 21:39 22.41971 44.28059 37939 ft 388 kts 216°
2026-05-07 21:40 22.37509 44.24744 37928 ft 388 kts 215°
2026-05-07 21:40 22.33086 44.21460 37927 ft 388 kts 215°
2026-05-07 21:41 22.28638 44.18161 37926 ft 388 kts 215°
2026-05-07 21:41 22.24174 44.14852 37922 ft 388 kts 215°
2026-05-07 21:42 22.19720 44.11553 37912 ft 387 kts 215°
2026-05-07 21:42 22.15288 44.08273 37913 ft 388 kts 215°
2026-05-07 21:43 22.10838 44.04983 37903 ft 388 kts 215°
2026-05-07 21:43 22.06383 44.01690 37905 ft 388 kts 215°
2026-05-07 21:44 22.01949 43.98416 37900 ft 389 kts 215°
2026-05-07 21:44 21.97471 43.95112 37900 ft 389 kts 215°
2026-05-07 21:45 21.92994 43.91810 37909 ft 390 kts 215°